Orbital Elements at Epoch 2459000.5 (2020-May-31.0) TDB
Reference: JPL 17 (heliocentric ecliptic J2000)
Element | Value | Uncertainty (1-sigma) | Units |
e | .0423608637058034 | 3.9222e-08 | |
a | 2.314271626170835 | 9.8584e-09 | au |
q | 2.216237081236405 | 9.1917e-08 | au |
i | 5.278281030168729 | 4.7098e-06 | deg |
node | 158.509136861975 | 3.7977e-05 | deg |
peri | 335.6393965175538 | 6.1875e-05 | deg |
M | 171.2154146377596 | 4.99e-05 | deg |
tp | 2458388.910128915400 (2018-Sep-27.41012892) | 0.00017715 | TDB |
period | 1285.937682984178 3.52 | 8.2168e-06 2.25e-08 | d yr |
n | .2799513574908042 | 1.7888e-09 | deg/d |
Q | 2.412306171105266 | 1.0276e-08 | au |
|
| | Orbit Determination Parameters
Additional Information
|